Location: Waldport
(44.4270°N, 124.0680°W)
Time: 22:19:31
(UTC-07:00)

Meteor 1-26 Rocket - Visible Passes

Search period start: 27 April 2015 00:00
Search period end: 07 May 2015 00:00
Orbit: 825 x 911 km, 81.3° (Epoch: 26 April)

Date Brightness Start Highest point End Pass type
(mag) Time Alt. Az. Time Alt. Az. Time Alt. Az.
27 Apr 6.3 22:04:45 10° SW 22:09:56 30° WNW 22:14:58 10° N visible
28 Apr 6.3 21:57:57 10° SW 22:03:05 29° WNW 22:08:05 10° N visible
29 Apr 6.4 21:51:08 10° SW 21:56:14 29° WNW 22:01:12 10° N visible
30 Apr 6.4 21:44:19 10° SW 21:49:23 28° WNW 21:54:19 10° N visible
01 May 6.5 21:37:30 10° SW 21:42:33 28° WNW 21:47:26 10° N visible
02 May 6.6 21:30:42 10° SW 21:35:42 27° WNW 21:40:32 10° N visible
03 May 6.7 21:23:53 10° SW 21:28:51 27° WNW 21:33:39 10° N visible
04 May 6.7 21:17:05 10° SW 21:22:00 27° WNW 21:26:45 10° NNW visible
05 May 6.8 21:10:16 10° SW 21:15:09 26° WNW 21:19:52 10° NNW visible
06 May 6.9 21:03:27 10° WSW 21:08:18 26° WNW 21:12:58 10° NNW visible
